User: anonymous   Login
Location: Unspecified
(0.0000°N, 0.0000°E)
Time: 21:54:41
(UTC+00:00)
Language:

TOPSAT - Orbit

View from above orbital plane
View from above orbital plane
View from above satellite
View from above satellite

Ground track
Ground track

The orbit data is extracted from the following two-line orbital elements,

1 28891U 05043B   17082.87728559 +.00000052 +00000-0 +19439-4 0  9996
2 28891 097.8718 242.3899 0018116 067.2374 293.0742 14.61255435607896
Epoch (UTC): 23 March 2017 21:03:17
Eccentricity: 0.0018116
inclination: 97.8718°
perigee height: 676 km
apogee height: 702 km
right ascension of ascending node: 242.3899°
argument of perigee: 67.2374°
revolutions per day: 14.61255435
mean anomaly at epoch: 293.0742°
orbit number at epoch: 60789

The dashed part of the orbit path shows where the satellite is in the earth's shadow,  

DLR